星链-6350 (STARLINK-6350 )

导读

STARLINK-6350是美国星链(SpaceX星链)项目的卫星,于北京时间2023年7月7日发射升空,属于低轨互联网通信卫星。它加入星链星座组网,补充全球卫星互联网覆盖能力,为偏远地区、海上、航空等场景提供宽带互联网接入服务,推动星链全球通信网络的布局完善,拓展了卫星互联网的服务范围。

基本信息
目录编号:
57226
目录名称:
STARLINK-6350
国际标识:
2023-094J
轨道中心:
EARTH
卫星名称:
星链-6350
卫星全名:
星链-6350 (STARLINK-6350 )
卫星状态:
在轨 (已飞行1073 天)
发射日期:
2023-07-07 UTC
国别 :
美国 (US)
星等 :
--
轨道信息
数据来源 国际轨道数据
星历时间: 2026-06-14T17:37:11+0800
11小时前
查看轨道信息
半长轴: 6861.196km
偏心率: 0.0001237
轨道倾角: 43.001°
近地点辐角 274.462°
升交点赤经 204.763°
平近点角 85.609°
近地点: 482.21km
远地点: 483.908km
周期: 94.267分钟
每日圈数: 15.275768
详细信息
固有亮度:
5
最大亮度:
2.4
卫星平台:
Starlink v1.5
覆盖范围:
全球
运营商:
太空探索技术公司
运营商所在国:
美国
制造商(研发单位):
太空探索技术公司
制造商所在国:
美国
使用方式:
暂无
卫星简介
星链(Starlink)计划是由太空探索技术公司(SpaceX)提出的一个巨型低轨卫星互联网星座项目,计划在2019年至2024年间在太空搭建由约1.2万颗卫星组成的“星链”网络,其中1584颗将部署在地球上空550千米处的近地轨道,并从2020年开始工作。该卫星仍在工作。
2D轨道图
3D轨道图
轨道高度分析图
轨道倾角分析图
轨道综合分析图
查看轨道综合分析图